Location: Schommer Observatory
(40.5200°N, 74.4500°W)
Time: 11:39:35
(UTC-04:00)

Tiangong 1 - Pass Details

Date: 15 October 2017
Orbit: 292 x 320 km, 42.8° (Epoch: 22 October)

Event Time Altitude Azimuth Distance (km) Brightness Sun altitude
Rises 18:40:38 0° 286° (WNW) 2,051 6.2 -5.2°
Reaches altitude 10° 18:42:37 10° 285° (WNW) 1,214 4.9 -5.6°
Maximum altitude 18:45:20 82° 198° (SSW) 319 0.7 -6.1°
Drops below altitude 10° 18:48:01 10° 110° (ESE) 1,196 3.0 -6.6°
Enters shadow 18:48:29 - 110° (ESE) 1,392 3.3 -6.7°
